Wind_Speed
7 5 6 6 4 6 6 6 5 7 7 8 7 5 6 6 6 3 3 0 4 7 11 12 14 16 19 21 26 32 37 40 42 39 35 36 39 47 50 48 46 45 44 40 36
9 8 8 7 6 6 6 6 7 6 7 11 12 11 11 9 6 4 4 4 6 10 12 13 15 16 18 20 20 20 22 29 37 43 45 43 42 43 48 53 50 52 50 50 45
8 7 8 9 9 10 10 13 15 14 13 11 11 10 10 5 3 3 2 5 8 12 14 14 17 21 21 21 22 22 21 19 21 25 33 43 50 51 51 49 58 58 57 55 55
15 14 15 15 15 16 17 16 15 13 10 9 7 6 4 3 5 3 5 7 9 12 14 16 19 20 24 24 23 23 25 25 26 27 24 24 27 43 56 60 57 62 62 62 62
15 15 15 14 13 12 12 12 12 10 7 5 3 2 3 4 7 8 10 10 12 16 17 17 20 22 23 24 25 26 28 29 29 30 32 33 34 32 33 45 56 65 68 71 68
11 11 11 10 11 9 9 8 7 6 4 2 3 5 7 8 8 10 11 13 14 15 17 17 17 20 23 25 26 27 29 31 33 34 36 38 40 39 39 42 44 49 62 76 78
8 7 9 9 8 8 8 7 6 6 5 7 9 9 12 11 11 12 13 14 14 14 14 15 16 18 22 23 23 26 29 29 32 34 36 40 44 46 44 43 42 48 52 67 80
9 10 8 7 7 8 8 8 7 7 8 10 12 12 12 12 12 13 13 15 15 14 15 15 15 19 21 21 25 29 32 35 33 35 36 36 40 44 46 47 48 47 48 55 67
12 11 11 11 12 12 11 11 11 11 12 13 14 14 14 13 14 14 16 15 14 15 15 17 16 20 23 29 31 33 35 36 37 38 39 42 46 47 49 48 47 49 49 51 63
17 16 17 17 16 15 15 15 16 16 16 16 16 17 16 17 16 17 14 14 14 12 15 15 18 24 31 36 38 39 40 40 41 39 42 43 47 46 49 51 56 54 53 51 55
21 20 19 19 19 18 19 18 19 20 20 19 20 20 20 18 18 16 13 13 8 9 13 17 20 22 31 35 37 41 45 42 42 44 44 44 48 50 51 52 53 52 54 51 50
24 23 21 20 20 21 21 21 21 21 22 21 20 21 22 20 19 17 15 12 8 8 11 14 19 23 29 31 36 42 44 47 44 45 46 45 48 51 52 54 56 57 61 51 47
25 25 24 23 22 21 22 23 23 22 22 22 22 21 23 22 20 18 16 13 11 8 10 14 17 21 27 28 33 37 41 41 44 46 49 48 47 49 53 58 59 63 67 59 50
29 29 26 25 23 22 22 23 24 23 23 24 23 23 22 20 21 20 19 17 15 12 13 14 18 20 23 27 31 36 39 42 43 46 49 50 51 52 53 57 63 68 70 63 51
32 32 29 27 27 25 26 27 27 25 25 24 23 23 23 22 22 22 20 20 20 16 15 17 20 22 25 28 31 36 40 43 45 47 48 51 51 55 56 58 62 66 66 61 55
19 27 32 31 31 28 27 28 29 25 27 26 27 26 26 26 25 24 22 23 23 21 19 20 24 25 28 31 33 38 43 44 47 49 49 49 51 54 58 62 61 60 56 55 56
18 19 23 32 30 26 25 25 24 24 26 26 25 26 26 25 26 26 25 25 27 25 23 23 25 27 29 31 35 39 44 48 50 51 49 50 49 52 54 60 63 59 51 47 51
20 18 17 17 19 21 22 25 25 25 25 25 24 24 25 26 27 27 27 28 29 29 27 26 28 29 31 34 39 41 45 50 58 54 52 50 48 48 51 58 61 61 55 55 55
23 22 22 20 20 21 22 20 23 23 25 24 24 24 23 25 26 26 26 28 30 30 28 28 27 29 31 35 41 44 46 49 53 54 54 53 47 48 51 55 59 56 50 49 52
28 25 24 25 24 21 19 17 22 24 26 26 26 28 24 22 24 26 26 29 30 31 28 28 27 29 32 35 41 44 48 51 53 55 55 54 48 47 51 54 57 60 51 47 48
30 30 27 28 29 26 19 20 24 26 27 26 26 29 27 26 24 25 27 28 29 30 30 30 28 31 35 37 42 44 46 50 52 52 56 59 52 49 49 53 56 59 52 48 49
35 33 31 31 29 25 23 25 27 28 29 29 26 26 29 29 27 25 26 29 28 29 30 30 30 31 35 38 43 44 46 49 53 52 53 56 50 49 49 51 55 59 52 48 49
39 38 37 35 34 30 27 29 31 30 28 30 29 27 29 32 33 28 28 30 28 31 32 31 30 34 37 40 44 44 44 47 52 51 50 51 52 44 48 49 50 57 55 48 50
44 43 40 38 36 36 35 35 34 32 30 29 30 30 30 33 33 35 32 32 32 33 31 32 31 34 37 36 44 42 43 45 50 51 48 42 47 44 41 48 50 55 56 49 50
48 47 45 42 39 41 42 41 38 35 35 30 32 31 33 31 32 34 35 33 33 32 32 33 34 35 37 35 41 41 42 44 52 52 48 45 48 50 43 47 52 56 58 54 50
56 49 44 46 45 46 47 42 38 38 41 35 34 34 34 30 34 33 33 33 34 34 36 35 35 36 37 37 41 40 41 47 49 44 46 46 47 49 40 45 51 53 56 56 48
57 52 50 50 47 48 46 44 45 46 42 40 35 35 33 32 35 34 33 33 33 35 37 38 34 39 38 39 39 36 41 46 45 40 43 46 49 49 39 41 49 51 54 55 47
Wind_Direction
153 136 130 140 157 163 170 171 171 168 178 175 185 206 215 206 201 205 145 81 333 334 330 328 320 309 299 287 275 273 271 269 265 261 258 255 258 264 265 262 259 257 255 251 250
180 170 165 165 161 180 174 174 161 150 146 128 124 130 114 95 92 128 55 0 351 342 332 332 326 321 313 306 305 300 298 281 271 267 261 260 259 260 267 267 263 260 255 253 247
202 205 178 166 160 156 152 138 127 122 116 104 100 89 84 73 42 59 326 339 344 335 331 332 344 338 326 317 316 311 311 313 305 291 277 263 257 258 262 267 264 258 258 255 253
121 124 125 124 123 127 126 124 123 120 112 106 85 73 70 40 335 288 304 312 320 315 316 328 339 338 340 325 322 318 312 308 306 302 302 299 283 265 263 259 263 267 264 259 254
117 120 117 118 121 129 133 134 127 127 122 90 54 354 322 287 287 303 302 307 317 324 325 334 337 335 334 333 327 323 321 318 312 307 301 298 296 292 282 274 268 264 265 265 258
134 132 127 138 149 149 151 148 143 141 147 180 247 270 283 280 287 291 304 309 313 315 320 326 328 332 331 331 329 326 322 319 315 311 305 301 295 294 289 285 281 279 268 264 265
171 167 171 180 177 174 187 190 194 194 213 233 245 263 276 282 291 301 309 311 309 315 315 322 327 329 328 330 323 322 319 313 310 304 299 298 298 296 296 291 286 280 276 268 262
212 213 216 217 225 232 235 242 241 247 255 260 263 264 267 282 291 297 304 294 301 313 318 326 332 335 335 324 322 318 316 307 302 301 298 294 292 292 295 296 296 293 285 271 264
239 244 246 244 244 247 253 259 263 262 264 267 270 274 277 283 285 286 295 300 306 312 326 333 333 348 336 333 324 318 307 302 302 305 307 307 307 306 304 302 301 301 293 290 256
242 241 244 248 253 257 263 267 269 270 269 269 274 277 284 289 287 293 295 299 305 322 343 342 352 341 337 335 336 330 325 325 315 311 318 318 316 313 312 310 307 310 305 294 276
248 249 250 256 260 263 265 266 271 274 274 277 280 281 285 283 285 287 288 292 302 340 347 358 0 351 4 358 7 8 2 340 330 327 322 323 323 321 317 316 313 314 321 302 284
250 252 252 257 263 267 268 271 273 272 276 279 285 286 285 282 281 286 287 284 290 347 11 357 356 358 352 358 360 4 1 359 340 328 326 328 326 322 324 323 322 328 334 318 293
253 252 254 254 257 263 269 273 273 276 281 283 280 279 279 280 284 287 283 275 283 307 319 330 336 342 348 351 354 356 355 351 351 341 328 329 327 328 332 333 333 338 340 335 312
254 255 252 255 257 262 267 272 274 278 280 280 282 282 283 284 281 283 279 271 279 293 282 297 317 332 341 342 344 349 351 348 344 334 331 329 332 330 337 341 342 342 345 342 329
254 253 254 252 256 261 267 272 275 281 285 284 285 286 285 283 281 281 279 278 274 274 280 290 302 311 326 333 335 336 342 345 340 336 329 329 333 334 337 344 345 345 347 348 348
281 262 253 257 260 263 268 272 275 283 290 286 288 288 284 277 278 277 279 279 276 272 276 287 291 301 313 327 333 335 334 337 338 337 334 331 335 335 339 344 344 345 348 349 352
277 278 263 259 261 271 274 276 273 279 285 286 287 288 286 279 278 282 284 279 283 287 293 293 297 304 315 322 329 331 334 331 332 336 337 331 335 338 341 342 342 342 345 346 347
276 268 265 267 273 274 275 275 276 276 273 277 281 285 285 285 283 287 291 289 290 296 303 304 302 303 313 321 327 329 329 329 328 331 339 331 334 338 341 342 343 342 340 339 338
270 271 268 264 260 268 276 286 285 277 275 278 281 279 280 282 283 285 291 294 294 298 301 302 305 306 316 321 326 329 329 327 325 328 335 333 333 334 341 342 343 346 337 334 333
266 264 266 267 265 265 265 271 276 275 281 284 285 282 280 279 282 287 291 295 296 297 297 300 305 307 314 320 324 328 329 328 326 330 334 334 338 333 338 339 342 345 340 338 339
261 264 262 266 268 272 276 270 269 274 275 281 283 283 281 278 278 282 291 291 291 291 297 299 301 307 314 319 323 327 327 326 325 333 333 331 343 330 335 338 339 343 341 339 337
258 261 261 261 263 268 269 268 269 271 278 281 281 281 282 278 276 277 282 284 288 288 291 295 300 306 312 318 320 325 327 324 328 333 333 330 338 329 332 337 337 340 344 336 337
256 257 259 262 263 265 261 260 264 267 272 278 278 281 281 283 283 283 283 283 285 283 288 293 301 305 310 315 321 323 324 325 327 333 333 332 331 330 330 336 335 337 343 338 337
254 253 253 255 261 262 262 261 267 269 272 274 276 275 277 281 289 292 285 288 288 284 286 290 292 300 305 314 319 320 324 327 329 330 328 339 334 323 331 333 333 338 341 334 336
254 254 255 254 255 255 258 260 266 269 267 270 273 276 273 279 287 286 290 290 286 285 285 289 291 294 298 313 316 319 325 328 332 329 330 335 334 328 332 332 333 339 340 337 337
257 255 258 257 254 253 255 258 261 260 264 271 272 271 275 280 276 283 286 288 287 289 290 290 295 296 304 312 313 320 326 333 331 332 332 335 332 327 332 332 331 340 339 340 338
258 261 257 252 253 255 258 258 257 257 259 265 268 270 273 277 274 276 278 283 285 287 285 286 290 297 308 310 311 325 329 336 329 331 330 333 332 331 328 333 329 339 340 342 340
Height
5806 5808 5809 5811 5813 5814 5815 5816 5817 5819 5820 5820 5822 5825 5826 5826 5827 5829 5830 5831 5831 5831 5831 5830 5829 5828 5827 5826 5826 5825 5825 5825 5825 5828 5829 5827 5826 5821 5820 5823 5825 5827 5827 5828 5830
5806 5807 5808 5810 5810 5812 5813 5815 5815 5818 5820 5821 5820 5823 5825 5827 5827 5829 5829 5830 5829 5829 5830 5828 5827 5826 5825 5823 5822 5820 5818 5818 5818 5818 5821 5821 5819 5814 5812 5811 5816 5816 5817 5817 5820
5808 5809 5808 5809 5810 5812 5814 5815 5816 5818 5821 5823 5823 5823 5824 5827 5827 5828 5828 5828 5827 5827 5827 5826 5824 5823 5821 5819 5818 5816 5815 5812 5811 5810 5809 5809 5808 5807 5806 5807 5799 5800 5805 5806 5810
5810 5811 5811 5813 5814 5815 5816 5817 5818 5820 5822 5823 5824 5824 5825 5825 5828 5827 5827 5827 5827 5826 5825 5824 5821 5820 5818 5816 5814 5812 5811 5809 5806 5804 5803 5801 5799 5798 5796 5795 5797 5792 5791 5793 5793
5813 5814 5814 5815 5816 5817 5818 5819 5818 5820 5822 5822 5824 5826 5826 5825 5826 5826 5826 5824 5823 5822 5821 5819 5817 5815 5814 5813 5811 5808 5806 5803 5801 5799 5796 5793 5791 5790 5789 5786 5786 5784 5782 5779 5779
5816 5815 5814 5818 5819 5820 5821 5821 5820 5819 5821 5822 5824 5825 5825 5825 5822 5823 5822 5821 5820 5819 5818 5815 5813 5811 5810 5809 5807 5804 5801 5799 5795 5792 5789 5786 5780 5780 5781 5780 5778 5776 5770 5767 5764
5815 5815 5817 5819 5819 5819 5821 5820 5821 5820 5820 5820 5822 5821 5822 5822 5820 5819 5817 5817 5816 5816 5815 5813 5811 5809 5807 5806 5803 5800 5797 5794 5790 5786 5783 5777 5772 5769 5769 5766 5764 5762 5759 5753 5752
5814 5815 5815 5814 5815 5817 5818 5819 5818 5817 5818 5818 5818 5818 5819 5818 5816 5816 5814 5814 5814 5813 5811 5810 5807 5804 5803 5802 5799 5796 5794 5789 5787 5780 5775 5771 5763 5760 5757 5753 5748 5745 5742 5739 5735
5810 5810 5811 5812 5814 5814 5814 5815 5813 5814 5814 5815 5815 5814 5815 5813 5813 5812 5812 5811 5810 5810 5808 5805 5802 5801 5799 5797 5795 5791 5787 5782 5777 5773 5768 5760 5752 5747 5740 5738 5734 5729 5724 5716 5715
5809 5810 5811 5811 5812 5812 5811 5811 5811 5812 5812 5812 5812 5813 5811 5810 5809 5808 5807 5807 5807 5806 5803 5801 5800 5797 5795 5792 5787 5783 5779 5773 5768 5766 5759 5754 5746 5740 5732 5723 5717 5710 5703 5696 5689
5805 5806 5806 5806 5807 5807 5808 5809 5810 5810 5808 5807 5807 5807 5806 5806 5805 5804 5803 5802 5802 5801 5798 5797 5795 5793 5789 5785 5782 5777 5773 5767 5759 5754 5750 5745 5735 5727 5721 5713 5705 5697 5685 5672 5665
5799 5800 5800 5802 5802 5802 5802 5803 5803 5805 5804 5803 5802 5802 5801 5800 5800 5798 5798 5798 5797 5795 5794 5793 5789 5787 5782 5778 5775 5771 5765 5760 5754 5745 5743 5736 5729 5718 5707 5698 5689 5678 5665 5651 5641
5794 5794 5795 5795 5796 5797 5798 5798 5798 5798 5798 5797 5797 5797 5797 5797 5795 5794 5794 5793 5792 5791 5789 5788 5785 5781 5777 5774 5770 5764 5758 5752 5745 5738 5732 5727 5723 5709 5699 5685 5674 5663 5649 5632 5618
5788 5789 5789 5790 5792 5792 5793 5793 5792 5792 5793 5794 5792 5791 5790 5790 5790 5789 5789 5789 5788 5786 5783 5782 5779 5775 5772 5769 5765 5760 5753 5745 5737 5731 5720 5713 5709 5699 5689 5677 5661 5648 5635 5621 5608
5783 5784 5784 5784 5785 5786 5787 5786 5787 5788 5787 5787 5786 5785 5784 5785 5785 5783 5783 5783 5781 5779 5778 5774 5770 5768 5766 5762 5758 5754 5746 5739 5732 5724 5715 5703 5696 5683 5675 5667 5653 5638 5624 5611 5601
5776 5777 5778 5779 5780 5781 5780 5780 5782 5784 5781 5781 5780 5780 5780 5779 5779 5778 5777 5777 5775 5772 5769 5766 5764 5762 5759 5754 5749 5745 5739 5731 5724 5717 5709 5694 5685 5678 5664 5654 5645 5633 5621 5610 5599
5772 5771 5772 5772 5773 5774 5774 5774 5776 5776 5775 5775 5775 5774 5774 5774 5773 5772 5770 5769 5768 5766 5763 5759 5756 5753 5750 5746 5742 5736 5730 5724 5717 5710 5702 5689 5678 5669 5659 5648 5637 5625 5615 5606 5596
5768 5766 5766 5767 5767 5767 5768 5769 5769 5769 5768 5767 5767 5767 5767 5767 5766 5765 5764 5763 5761 5759 5756 5753 5751 5746 5742 5737 5733 5728 5722 5713 5699 5694 5693 5687 5673 5662 5653 5643 5632 5619 5605 5595 5587
5761 5762 5761 5761 5760 5761 5762 5764 5764 5764 5762 5761 5760 5759 5759 5759 5759 5758 5757 5756 5755 5753 5751 5747 5744 5739 5735 5730 5725 5719 5714 5709 5699 5692 5682 5678 5668 5656 5646 5637 5628 5616 5603 5593 5584
5755 5756 5756 5757 5756 5755 5755 5756 5756 5755 5755 5756 5755 5754 5753 5751 5751 5750 5749 5748 5748 5747 5744 5741 5737 5732 5728 5723 5717 5710 5704 5697 5690 5678 5670 5667 5662 5646 5638 5631 5621 5611 5600 5589 5580
5748 5749 5749 5748 5749 5750 5751 5749 5748 5748 5747 5748 5749 5747 5747 5745 5744 5742 5742 5741 5740 5739 5737 5734 5731 5727 5721 5717 5711 5705 5697 5690 5682 5676 5663 5650 5655 5639 5630 5621 5611 5602 5592 5580 5570
5738 5740 5742 5740 5741 5742 5742 5741 5741 5740 5740 5740 5742 5741 5741 5739 5738 5735 5735 5733 5732 5731 5729 5727 5723 5720 5716 5711 5705 5697 5689 5682 5675 5670 5663 5650 5647 5636 5623 5613 5601 5594 5584 5574 5563
5730 5729 5732 5734 5734 5735 5735 5733 5731 5733 5732 5733 5733 5733 5733 5732 5731 5732 5729 5726 5725 5723 5721 5719 5717 5712 5708 5706 5697 5691 5685 5675 5669 5665 5659 5646 5637 5629 5618 5610 5600 5588 5580 5568 5558
5718 5719 5721 5723 5726 5727 5726 5725 5725 5725 5725 5723 5725 5724 5724 5724 5725 5723 5722 5721 5719 5716 5715 5711 5710 5706 5701 5698 5690 5684 5679 5668 5662 5657 5650 5639 5631 5624 5615 5604 5595 5585 5576 5565 5552
5703 5707 5710 5713 5715 5715 5716 5715 5716 5718 5716 5715 5715 5716 5714 5715 5717 5715 5713 5712 5710 5710 5708 5705 5703 5699 5695 5691 5682 5678 5673 5662 5654 5649 5638 5631 5621 5614 5608 5599 5588 5579 5569 5558 5547
5688 5694 5698 5701 5701 5701 5702 5706 5707 5706 5706 5707 5706 5705 5707 5708 5706 5706 5706 5705 5703 5704 5702 5698 5696 5692 5690 5687 5677 5674 5666 5657 5650 5643 5632 5623 5617 5605 5602 5593 5584 5576 5565 5553 5542
5675 5681 5684 5685 5687 5689 5693 5695 5694 5693 5696 5696 5696 5697 5698 5698 5697 5696 5696 5696 5695 5696 5694 5691 5688 5684 5684 5680 5671 5669 5660 5652 5647 5639 5629 5619 5609 5603 5597 5591 5579 5572 5561 5549 5538